International Virtual Aviation Organisation

Russian Federation and Kazakhstan MCD

 

Карточка аэропорта UHSS

Внимание!
Информация на этой странице в стадии наполнения.
Если вы не увидели какой-то информации, или заметили неточность - пожалуйста сообщите нам!
Спасибо!
Команда RU-STAFF
Название аэропортаХомутово
Название аэропорта (англ.)Khomutovo
Превышение59 ft. (18 m.)
Координаты46°53.316', 142°43.020000000001'
Высота перехода1600
Эшелон переходаFL080
Коды ответчика6601-6627
Зона ОрВДХабаровск РПИ (UHHH)
Данные METARUHSS 300130Z 23003MPS 8000 -SHSN SCT015 BKN033CB M04/M06 Q1018 R01/490250 NOSIG RMK MT OBSC QFE762/1017
Проноз погоды (TAF)UHSS 292250Z 3000/0106 30003MPS 9999 BKN030CB TEMPO 3000/0106 0700 +SHSN BKN007 BKN020CB
NOTAMshow/hide NOTAM
AWOS   TABLE

Информация о ВПП

ВПП Длина ВПП (м.) Покрытие Курс ВПП Частота ILS
013401Железобетон12109.5
193401Железобетон192111.7

Диспетчерские позиции

Позывной Наименование органа УВД Частота
UHSS_TWRЮжно-Сахалинск−Старт122.0
UHSS_R_APPЮжно-Сахалинск−Круг120.6



Спутниковое изображение